FW6138 Weather Reports


Display with metric or nautical units.
time (UTC)temp
F
wind
direction
speed
MPH
gust
MPH
rain 1hr
in
rain 24hr
in
rain mn
in
humidity
%
barometer
mb
20260504021532 83 90 0.0 3.0 0.00 0.00 0.00 39 1009.0
20260504020107 85 81 1.0 5.0 0.00 0.00 0.00 35 1009.1
20260504014531 85 74 2.0 5.0 0.00 0.00 0.00 32 1009.2
20260504013029 86 71 3.0 7.0 0.00 0.00 0.00 32 1009.3
20260504011531 87 73 2.0 6.0 0.00 0.00 0.00 32 1009.5
20260504010029 88 56 1.0 6.0 0.00 0.00 0.00 32 1009.6
20260504003038 88 34 3.0 7.0 0.00 0.00 0.00 31 1009.9
20260504001536 88 91 2.0 5.0 0.00 0.00 0.00 30 1010.0
20260504000037 88 53 4.0 8.0 0.00 0.00 0.00 30 1010.2
20260503234530 88 55 3.0 9.0 0.00 0.00 0.00 30 1010.3
20260503233031 88 74 4.0 11.0 0.00 0.00 0.00 30 1010.5
20260503231539 89 57 3.0 7.0 0.00 0.00 0.00 30 1010.7
20260503230034 89 100 3.0 6.0 0.00 0.00 0.00 28 1011.0
20260503223030 89 22 1.0 6.0 0.00 0.00 0.00 27 1011.5
20260503221538 88 94 3.0 8.0 0.00 0.00 0.00 28 1011.8
20260503220106 88 61 3.0 8.0 0.00 0.00 0.00 28 1012.0
20260503214531 88 102 4.0 9.0 0.00 0.00 0.00 29 1012.2
20260503213039 88 117 4.0 9.0 0.00 0.00 0.00 30 1012.4
20260503211529 87 107 3.0 7.0 0.00 0.00 0.00 31 1012.6
20260503210029 86 77 4.0 12.0 0.00 0.00 0.00 31 1012.8
20260503203032 84 61 5.0 11.0 0.00 0.00 0.00 35 1013.2
20260503201536 83 52 3.0 11.0 0.00 0.00 0.00 37 1013.3
20260503194531 80 248 2.0 5.0 0.00 0.00 0.00 44 1013.6
20260503191537 78 332 2.0 5.0 0.00 0.00 0.00 48 1014.1
20260503190036 0 0 0.0 0.0 0.00 0.00 0.00 100
20260503184612 76 346 1.0 4.0 0.00 0.00 0.00 53 1014.5
20260503183029 75 359 1.0 4.0 0.00 0.00 0.00 54 1014.7
20260503181529 74 353 1.0 4.0 0.00 0.00 0.00 54 1014.8
20260503180037 73 309 1.0 4.0 0.00 0.00 0.00 54 1015.0
20260503174530 72 326 1.0 3.0 0.00 0.00 0.00 55 1015.1
20260503171530 72 115 0.0 2.0 0.00 0.00 0.00 57 1015.4
20260503150112 54 150 1.0 3.0 0.00 0.00 0.00 94 1016.6
20260503110107 47 159 0.0 2.0 0.00 0.00 0.00 95 1016.2
20260503071606 53 157 0.0 0.0 0.00 0.00 0.00 92 1015.7
20260503060106 55 159 0.0 3.0 0.00 0.00 0.00 91 1015.4
20260503054530 56 180 1.0 3.0 0.00 0.00 0.00 91 1015.5
20260503051537 57 180 0.0 1.0 0.00 0.00 0.00 91 1015.4
20260503050033 57 162 1.0 4.0 0.00 0.00 0.00 90 1015.3
20260503044539 57 117 0.0 2.0 0.00 0.00 0.00 89 1015.3
20260503043031 58 22 0.0 0.0 0.00 0.00 0.00 88 1015.1
20260503041530 59 22 0.0 0.0 0.00 0.00 0.00 86 1014.8
20260503040033 60 22 0.0 0.0 0.00 0.00 0.00 85 1014.6
20260503034533 61 22 0.0 0.0 0.00 0.00 0.00 84 1014.2
20260503033033 62 22 0.0 0.0 0.00 0.00 0.00 83 1013.9
20260503031607 64 22 0.0 0.0 0.00 0.00 0.00 83 1013.5
20260503030029 65 22 0.0 0.0 0.00 0.00 0.00 82 1013.2
20260503024530 67 22 0.0 0.0 0.00 0.00 0.00 81 1013.0
20260503023035 68 22 0.0 0.0 0.00 0.00 0.00 78 1012.9